Location: Unspecified
(48.2082°N, 0.0000°E)
Time: 01:24:19
(UTC+00:00)

Transit 4A - Pass Details

Date: 23 June 2019
Orbit: 862 x 982 km, 66.8° (Epoch: 21 July)

Event Time Altitude Azimuth Distance (km) Brightness Sun altitude
Rises 12:47:48 0° 311° (NW) 3,692 11.0 63.6°
Reaches altitude 10° 12:51:46 10° 334° (NNW) 2,746 10.3 63.3°
Maximum altitude 12:55:14 15° 7° (N) 2,409 10.0 63.1°
Drops below altitude 10° 12:58:42 10° 40° (NE) 2,735 10.2 62.8°
Sets 13:02:38 0° 64° (ENE) 3,668 10.8 62.5°
